Theta_e
314 313 315 318 319 318 319 320 322 321 316 318 316 316 312 311 313 316 316 315 318 323 325 326 326 326 326 327 327 327 326 324 323 320 320 318 317 316 312 309 306 305 305 302
316 314 314 316 315 316 317 316 316 316 316 315 312 311 312 313 317 318 318 319 320 321 322 322 323 324 324 325 324 323 322 320 319 318 317 314 311 307 306 305 303 301 300 300
319 314 315 318 317 315 315 315 317 318 319 312 312 312 311 312 315 315 317 317 318 319 319 320 320 320 321 321 321 319 317 317 315 313 309 307 305 304 303 300 298 298 299 300
316 312 320 319 313 314 316 315 313 312 312 311 311 309 310 312 313 314 315 316 316 316 316 317 317 318 318 317 316 315 314 311 308 306 306 304 301 299 297 298 299 300 299 298
319 318 316 314 313 315 316 317 313 313 310 310 309 309 307 309 310 311 312 314 314 314 315 315 316 316 315 314 313 312 309 308 305 302 300 298 298 299 300 299 299 298 294 293
312 318 320 317 313 310 312 316 312 311 311 311 310 316 314 308 309 310 312 312 312 313 313 313 313 312 313 311 310 307 303 301 299 299 299 301 300 300 297 294 293 293 292 291
312 319 316 312 311 310 318 319 311 310 311 311 313 311 310 308 308 309 309 310 310 310 311 310 308 309 308 304 303 302 300 300 300 302 300 298 294 293 292 291 290 290 289 289
312 316 320 311 309 315 316 310 311 310 311 311 310 308 307 306 306 306 306 306 307 307 305 304 303 305 302 301 299 299 301 302 299 295 294 292 291 290 289 289 289 289 289 289
317 320 314 310 314 312 312 312 311 311 311 311 309 306 305 304 304 303 304 303 303 303 301 299 299 300 301 300 299 298 296 294 292 291 290 290 290 289 289 289 289 289 288 286
316 315 313 312 311 312 311 311 312 312 312 312 310 306 304 303 302 301 301 300 300 300 300 299 298 298 297 295 294 293 291 291 290 290 289 289 289 287 286 284 283 282 282 283
314 313 312 314 313 313 312 312 311 312 312 312 310 306 305 302 301 300 299 299 299 299 298 296 295 295 293 292 291 290 290 289 289 288 286 285 284 284 283 282 281 281 281 281
318 315 317 317 317 315 313 312 312 313 310 309 309 308 303 301 299 298 298 297 297 296 296 294 292 291 290 290 289 289 288 287 286 285 284 283 283 283 282 281 281 280 280 280
315 315 314 314 314 312 311 311 311 312 311 309 305 306 303 300 298 297 297 296 296 294 293 291 290 289 289 288 287 286 285 284 283 283 282 282 281 281 280 280 279 279 278 278
315 314 311 311 310 310 311 310 309 309 308 307 305 302 301 299 296 297 296 294 293 291 290 289 289 288 287 286 285 284 283 282 282 281 281 280 280 279 279 278 278 278 277 277
312 312 311 311 308 308 309 309 308 307 305 303 301 300 299 297 296 294 292 291 290 289 289 288 287 286 285 284 283 282 282 281 280 280 279 279 278 278 278 277 277 277 277 277
308 308 309 309 307 306 307 305 308 303 301 300 299 298 297 295 293 291 290 289 289 288 287 286 285 284 283 282 281 281 280 280 279 279 278 278 278 277 277 277 276 276 276 276
305 300 301 302 302 301 301 301 303 302 299 298 297 296 294 293 291 290 288 287 286 286 285 284 283 283 282 281 280 280 279 279 278 278 277 277 277 276 276 276 275 275 275 275
306 307 304 306 303 301 299 299 298 296 295 295 293 293 293 291 289 288 287 286 285 284 283 283 282 281 280 280 279 278 278 278 277 277 276 276 276 275 275 275 274 274 274 274
305 304 301 300 302 300 298 296 296 296 295 294 293 291 289 288 287 287 286 285 284 283 282 281 280 280 279 278 278 277 277 277 276 276 275 275 275 274 274 274 273 273 273 273
304 304 301 299 297 298 297 296 296 295 294 293 290 288 286 286 286 286 284 283 282 282 281 280 279 278 278 277 277 276 276 275 275 275 274 274 274 273 273 273 272 272 272 272
299 297 297 296 295 296 296 295 294 293 290 287 287 288 288 287 284 283 282 282 281 280 279 278 278 277 277 276 276 275 275 274 274 274 274 273 273 272 272 271 271 271 271 271
297 297 295 295 295 294 293 293 291 288 287 288 287 288 287 284 283 282 281 280 279 279 278 277 276 276 275 275 274 274 274 273 273 273 272 272 271 271 270 270 270 270 270 270
294 294 294 293 293 291 288 287 288 289 288 288 286 283 282 282 281 280 279 279 278 277 277 276 275 274 274 274 273 273 273 272 272 272 271 270 270 269 269 269 269 269 269 269
293 292 292 290 288 288 287 285 287 285 284 282 281 281 280 280 279 279 278 277 276 276 275 274 274 273 273 273 272 272 271 271 271 270 270 269 269 268 268 268 269 269 269 269
291 290 289 287 288 287 286 285 283 282 282 281 281 280 279 278 278 277 277 276 275 274 274 273 273 272 272 271 271 270 270 270 269 269 269 268 268 268 268 268 268 268 268 268
289 288 287 287 286 285 284 283 282 281 281 280 279 278 278 277 276 276 275 274 274 273 273 272 272 271 271 270 270 269 269 268 268 268 267 267 267 267 267 267 267 268 268 268
286 285 285 284 283 283 282 282 281 281 279 279 278 278 277 276 275 274 274 273 273 272 271 271 270 270 269 268 268 268 267 267 267 267 267 267 267 267 267 267 267 267 268 268
Wind_Speed
4 4 5 5 5 12 11 10 8 11 10 10 7 4 5 7 6 7 6 3 8 9 9 8 8 9 11 13 14 16 15 15 14 12 12 14 15 14 14 17 19 16 15 12
3 2 7 5 8 7 7 4 9 8 7 11 4 4 1 3 6 10 12 12 8 5 4 4 3 3 3 3 4 4 5 5 5 6 8 8 11 14 16 18 15 12 7 13
5 2 5 4 7 9 5 5 6 8 11 6 6 6 6 6 10 12 14 16 17 15 12 9 7 5 4 3 2 2 3 2 2 5 9 13 14 15 16 11 9 6 14 19
3 1 4 3 1 3 9 6 8 4 4 4 5 8 9 9 11 13 15 15 16 15 14 12 9 7 6 6 6 6 6 7 9 11 11 13 13 10 7 5 10 18 24 19
5 4 3 2 5 7 7 11 7 11 5 6 16 12 4 10 12 14 15 15 14 12 10 10 9 9 9 10 10 10 11 11 13 14 14 10 8 4 12 17 21 15 12 13
3 5 8 8 4 8 4 8 9 13 11 18 17 7 5 14 13 14 13 13 13 13 12 11 13 12 11 15 12 14 16 15 14 10 4 7 12 12 11 8 10 14 18 21
3 4 5 6 6 12 6 9 10 20 18 25 10 3 21 19 17 15 15 15 14 15 15 15 16 13 18 19 16 13 10 6 2 6 7 6 5 6 9 13 16 18 21 22
3 1 7 11 8 9 8 7 11 22 25 24 15 19 24 21 19 17 17 18 16 18 20 20 18 15 18 15 13 8 3 4 3 2 3 5 8 11 13 16 20 23 26 29
9 6 2 28 9 22 9 8 11 25 29 33 25 26 25 24 21 20 19 21 21 23 24 22 18 13 13 11 6 3 1 0 1 3 5 8 11 14 17 20 24 27 29 33
2 4 5 13 19 13 17 13 11 23 33 33 27 28 27 25 24 24 23 23 23 22 22 20 15 11 9 8 4 2 1 1 3 6 9 12 15 18 20 21 23 25 25 26
4 4 5 17 24 24 18 14 16 22 30 31 29 29 28 28 27 27 26 24 22 20 19 17 13 9 8 6 3 0 2 5 8 11 14 16 18 19 20 20 21 22 21 20
6 13 11 11 22 24 20 20 23 28 28 27 28 31 30 30 29 28 27 24 21 18 16 15 11 9 6 4 2 3 7 9 12 15 17 19 20 21 21 21 22 21 20 21
3 10 16 10 11 21 24 25 27 29 30 31 28 30 31 33 30 28 25 22 19 17 14 12 10 6 4 2 5 8 10 12 15 16 18 19 21 23 25 23 22 21 22 24
16 12 8 15 12 21 25 27 27 26 27 28 31 31 31 32 30 26 24 20 18 15 13 10 6 3 2 5 8 10 12 13 14 16 17 19 20 22 22 24 23 24 26 27
17 19 14 18 18 26 27 29 29 29 29 30 30 33 33 33 30 26 23 20 17 13 11 7 3 1 4 7 9 10 12 13 14 15 17 18 19 20 21 23 25 27 29 29
19 15 13 20 27 30 31 31 33 32 32 34 35 34 33 31 28 25 21 17 13 11 8 4 1 4 6 8 10 11 12 13 14 16 17 18 19 20 21 22 24 26 28 30
17 13 21 23 28 27 27 27 28 32 34 36 36 35 33 30 26 23 20 15 11 7 4 1 4 6 9 10 11 11 12 14 15 16 17 18 19 20 21 22 24 25 26 26
13 15 19 27 33 28 26 26 30 33 35 35 34 30 28 25 24 21 17 13 8 4 1 4 7 9 10 11 11 12 13 15 16 17 17 18 19 19 21 22 23 24 25 25
10 13 19 25 27 31 30 29 29 30 30 28 26 24 21 20 19 16 12 8 4 0 3 6 8 10 11 11 12 14 14 15 15 16 17 18 18 19 20 21 22 22 24 25
18 17 19 22 24 26 29 29 30 29 28 24 23 23 20 16 12 9 8 5 2 2 4 7 9 10 12 12 13 14 15 15 16 16 17 17 18 18 19 19 21 22 23 24
20 22 23 24 26 26 28 29 30 29 25 22 18 15 13 12 11 8 6 3 2 3 5 8 10 11 12 13 14 15 15 15 16 17 17 17 18 18 18 19 21 22 23 24
22 23 26 28 30 30 28 26 24 26 22 17 14 11 12 12 10 7 4 2 3 5 7 10 12 13 14 14 15 15 16 16 16 17 17 17 18 19 19 20 21 23 24 25
23 24 27 28 29 29 27 25 20 16 16 12 12 13 10 8 6 3 3 4 5 7 9 11 13 15 15 15 15 16 17 16 16 16 17 18 19 20 20 21 22 24 24 25
25 27 29 29 29 27 25 21 16 14 13 14 11 8 5 3 3 4 5 5 7 9 11 13 15 16 16 15 16 17 17 17 17 17 17 18 19 20 20 21 22 23 24 25
28 27 26 24 21 20 19 18 16 13 10 8 6 3 2 3 5 5 6 8 9 11 14 16 17 17 17 16 16 17 17 17 17 17 18 19 19 20 21 21 22 23 24 25
23 22 20 18 17 15 13 12 9 8 4 1 1 3 5 6 7 8 9 10 12 14 16 17 18 17 17 16 17 17 18 17 17 18 19 19 20 20 21 21 22 22 23 23
19 17 16 15 12 10 8 6 4 3 3 4 5 7 8 9 10 11 12 14 15 16 17 18 18 17 16 17 17 18 18 18 19 19 19 19 20 20 21 21 22 22 22 21
Wind_Direction
232 232 189 217 185 181 197 215 198 239 214 250 251 247 305 315 331 348 352 284 242 240 239 247 251 256 254 249 245 248 254 259 261 272 267 254 236 226 216 209 212 226 247 254
211 154 196 218 229 205 226 214 243 248 251 235 203 183 97 83 103 84 70 76 99 135 158 191 212 228 242 237 246 250 256 262 265 251 239 222 203 191 206 209 229 215 235 291
223 170 149 302 213 194 192 207 199 202 229 163 189 152 123 102 112 103 94 91 90 91 95 101 106 111 122 126 133 129 109 113 183 190 183 181 188 203 207 211 196 243 281 291
156 148 208 232 63 181 215 242 220 260 230 204 160 130 130 136 131 117 108 101 96 93 94 96 98 104 111 115 115 111 119 132 146 163 177 180 178 173 177 208 258 272 291 298
155 205 303 212 195 183 176 251 212 227 197 159 141 129 112 140 139 124 116 111 107 104 102 105 105 103 114 114 114 122 128 139 152 158 152 155 170 228 290 288 285 295 297 288
151 187 210 215 210 160 129 277 206 193 177 161 156 176 172 163 145 132 125 119 116 109 105 106 102 108 118 115 121 125 134 139 148 167 193 297 296 296 299 303 296 291 290 291
167 222 276 246 167 147 160 252 194 196 177 167 183 183 162 161 150 142 132 128 126 125 123 115 113 121 116 119 120 127 133 141 212 289 290 292 307 306 299 297 296 297 296 296
118 187 252 158 127 176 214 184 203 196 186 171 170 147 152 155 148 141 137 133 134 131 120 116 120 127 122 120 122 134 177 262 282 294 304 305 304 305 306 306 306 306 305 303
189 210 202 183 203 202 199 212 198 196 186 180 162 157 157 152 147 144 142 137 136 132 129 127 128 129 130 123 129 137 147 63 310 308 311 311 310 311 313 311 311 311 311 311
147 207 223 219 222 221 225 230 226 203 187 183 170 162 157 153 150 147 144 142 140 138 135 134 137 136 128 125 130 139 135 319 317 315 317 318 319 319 319 320 320 320 321 320
264 264 286 251 232 234 237 229 208 185 185 186 177 164 163 157 155 152 149 145 146 144 140 136 138 135 127 130 125 60 341 333 327 324 325 326 327 329 330 331 330 326 325 326
216 202 195 228 234 222 216 206 192 180 169 173 178 168 164 158 158 156 153 151 150 146 144 138 139 136 133 121 71 343 331 329 330 332 333 333 334 334 335 335 335 334 334 333
232 201 211 238 228 207 198 189 184 180 177 170 168 168 166 159 159 158 155 155 153 148 144 141 136 126 105 25 343 337 337 338 338 337 338 339 341 340 339 341 342 342 341 335
232 223 217 212 203 192 185 177 174 170 168 171 168 166 164 159 155 157 156 155 152 149 145 140 135 123 33 350 343 339 339 339 339 341 344 344 342 341 340 339 341 340 343 341
215 218 243 213 187 177 175 173 168 164 165 162 165 164 164 158 157 157 154 153 152 150 145 142 132 43 354 344 340 339 340 341 346 346 344 342 340 339 338 338 337 337 338 338
205 211 199 193 179 174 173 173 173 164 165 162 162 161 160 159 155 152 149 152 155 149 141 137 48 351 342 339 338 339 341 343 343 341 340 338 337 337 336 335 335 335 336 337
165 163 173 168 173 167 169 170 172 165 163 163 162 159 157 154 152 154 152 151 152 150 139 57 352 346 339 336 337 339 340 339 340 339 336 335 335 334 333 333 332 332 332 334
219 221 191 184 173 168 163 164 162 160 160 159 155 154 151 155 155 151 150 149 152 153 50 349 342 336 333 334 336 337 338 337 335 335 334 333 332 332 331 330 330 330 330 333
167 167 169 173 168 169 163 158 158 155 149 148 147 147 153 147 147 146 149 157 161 162 335 333 331 332 332 334 334 334 334 334 334 332 332 331 331 330 329 329 329 329 331 333
135 152 160 158 163 166 153 150 150 148 147 147 150 151 143 140 148 162 163 167 182 290 316 325 329 331 330 329 328 329 332 334 333 331 330 329 329 329 328 328 328 330 331 332
149 149 146 147 146 148 147 149 148 145 141 152 141 139 153 164 170 172 177 196 243 298 320 327 329 327 325 324 327 329 330 329 328 328 328 328 328 327 327 328 330 330 331 331
137 140 144 146 143 139 140 140 140 137 142 148 154 167 181 176 176 183 195 243 286 310 322 325 325 323 326 326 325 325 326 325 325 324 326 326 326 327 329 330 331 331 331 331
136 139 139 139 135 130 131 133 139 150 156 164 170 174 175 176 180 205 249 277 296 307 316 321 323 325 325 321 319 319 320 321 321 321 322 324 326 327 328 330 330 330 331 330
132 133 130 127 133 139 140 144 149 143 155 162 164 162 169 192 227 264 285 295 304 310 317 320 322 321 318 314 314 316 318 318 317 318 319 321 323 324 325 326 328 329 330 330
125 126 129 136 140 139 143 142 144 151 161 162 165 181 235 277 292 297 296 302 307 311 315 317 319 317 313 311 312 314 317 317 315 316 317 319 320 322 324 326 328 328 329 330
125 127 131 135 131 132 134 139 150 149 148 149 342 328 316 310 309 308 304 305 308 311 312 315 316 313 311 310 311 314 316 316 315 315 314 316 317 319 321 324 326 327 328 330
108 111 113 112 111 116 125 139 158 182 234 269 287 304 312 309 306 305 304 306 308 311 314 316 315 313 312 312 313 313 314 315 313 313 313 313 314 316 319 321 324 326 327 329